Location: Friedrichshafen
(47.6598°N, 9.4819°E)
Time: 14:09:30
(UTC+02:00)

ISS - Pass Details

Date: 06 January 2018
Orbit: 402 x 409 km, 51.6° (Epoch: 21 August)

Event Time Altitude Azimuth Distance (km) Brightness Sun altitude
Exits shadow 05:14:12 16° 60° (ENE) 1,217 -0.8 -28.6°
Drops below altitude 10° 05:14:59 10° 64° (ENE) 1,514 -0.2 -28.5°
Sets 05:17:08 0° 70° (ENE) 2,384 1.1 -28.1°
